This is the latest recevied weather packets stored in our database for station/object 4S6DRJ-13. If no packets are shown the sender has not sent any weather packets the latest 10 day(s).
| Time | Temp. | Humidity | Pressure | Rain* | Wind** | Luminosity | Snow |
|---|---|---|---|---|---|---|---|
| 1788173842 | 30.56° C | 75% | 1006.9 hPa | 0 mm | 0.45 m/s, 206° | 170 W/m² | - |
| 1788173782 | 30° C | 75% | 1007 hPa | 0 mm | 0.89 m/s, 221° | 186 W/m² | - |
| 1788173721 | 30° C | 75% | 1006.9 hPa | 0 mm | 0.89 m/s, 309° | 435 W/m² | - |
| 1788173660 | 30° C | 75% | 1007.2 hPa | 0 mm | 0.89 m/s, 314° | 440 W/m² | - |
| 1788173599 | 30° C | 75% | 1006.9 hPa | 0 mm | 2.24 m/s, 249° | 223 W/m² | - |
| 1788173537 | 30° C | 74% | 1006.8 hPa | 0 mm | 3.58 m/s, 247° | 189 W/m² | - |
| 1788173477 | 30° C | 74% | 1007 hPa | 0 mm | 1.34 m/s, 333° | 217 W/m² | - |
| 1788173416 | 30.56° C | 74% | 1006.8 hPa | 0 mm | 1.34 m/s, 326° | 258 W/m² | - |
| 1788173354 | 30.56° C | 73% | 1006.9 hPa | 0 mm | 1.34 m/s, 249° | 270 W/m² | - |
| 1788173293 | 30.56° C | 72% | 1007 hPa | 0 mm | 0.89 m/s, 240° | 142 W/m² | - |
| 1788173234 | 30.56° C | 71% | 1007.1 hPa | 0 mm | 1.79 m/s, 329° | 131 W/m² | - |
| 1788173172 | 30.56° C | 72% | 1007 hPa | 0 mm | 1.79 m/s, 247° | 149 W/m² | - |
| 1788173111 | 30.56° C | 72% | 1006.9 hPa | 0 mm | 0.45 m/s, 239° | 161 W/m² | - |
| 1788173050 | 30.56° C | 71% | 1006.9 hPa | 0 mm | 1.34 m/s, 256° | 168 W/m² | - |
| 1788172989 | 30.56° C | 72% | 1006.9 hPa | 0 mm | 1.79 m/s, 325° | 485 W/m² | - |
| 1788172928 | 30.56° C | 72% | 1006.9 hPa | 0 mm | 1.79 m/s, 255° | 507 W/m² | - |
| 1788172867 | 30.56° C | 73% | 1007.1 hPa | 0 mm | 3.13 m/s, 268° | 470 W/m² | - |
| 1788172806 | 30.56° C | 74% | 1006.9 hPa | 0 mm | 1.34 m/s, 224° | 544 W/m² | - |
| 1788172745 | 30.56° C | 74% | 1007 hPa | 0 mm | 2.68 m/s, 160° | 364 W/m² | - |
| 1788172684 | 30.56° C | 74% | 1006.9 hPa | 0 mm | 0.45 m/s, 276° | 350 W/m² | - |
| 1788172623 | 30.56° C | 74% | 1006.9 hPa | 0 mm | 1.34 m/s, 225° | 214 W/m² | - |
| 1788172562 | 30.56° C | 74% | 1006.9 hPa | 0 mm | 1.79 m/s, 210° | 205 W/m² | - |
| 1788172501 | 30.56° C | 74% | 1007.1 hPa | 0 mm | 1.34 m/s, 191° | 310 W/m² | - |
| 1788172449 | 30.56° C | 74% | 1006.7 hPa | 0 mm | 1.79 m/s, 258° | 585 W/m² | - |
| 1788172378 | 30.56° C | 73% | 1006.9 hPa | 0 mm | 1.79 m/s, 241° | 192 W/m² | - |
* Rain latest hour (hover to see other rain measurements)
** Current wind speed in m/s (hover to see current wind gust speed)